Temperature
5 5 5 5 5 5 5 4 4 3 3 4 4 4 4 4 4 4 4 4 4 4 4 4 3 3 3 3 3 3 3 3 3 3 3 3 3 3
5 5 5 5 5 5 4 4 4 3 3 3 3 3 3 3 3 3 3 3 3 3 3 3 3 3 3 2 2 2 2 2 2 3 3 3 3 3
4 4 4 4 4 4 4 3 3 3 3 3 3 3 3 3 3 3 3 3 3 3 3 2 2 2 2 2 2 2 2 2 2 2 2 2 2 2
4 4 4 4 4 3 3 3 3 3 3 3 3 2 2 2 2 2 2 2 2 2 2 2 2 2 1 2 1 1 1 1 1 1 2 1 2 1
3 3 3 3 3 3 3 3 2 2 2 2 2 2 2 2 1 1 1 1 2 2 1 1 1 1 1 1 1 1 1 1 1 1 1 1 1 1
3 3 3 3 2 2 2 2 2 2 1 1 1 1 1 1 1 1 1 1 1 1 1 1 1 1 1 1 1 1 0 0 0 0 0 0 0 0
2 2 2 2 2 2 2 1 1 1 1 1 1 1 1 0 0 0 0 0 0 1 1 1 0 1 0 0 0 0 -0 -0 -0 -0 -0 -0 -0 -0
2 2 2 2 2 1 1 1 1 1 1 1 0 0 0 0 -0 -0 -0 -0 -0 -0 -0 -0 -0 -0 -0 -0 -0 -0 -1 -1 -1 -1 -1 -1 -1 -0
2 1 1 1 1 1 1 1 1 0 0 0 0 0 -0 -0 -0 -0 -1 -1 -1 -1 -1 -1 -1 -1 -1 -1 -1 -1 -1 -1 -1 -1 -1 -1 -1 -1
1 1 1 1 1 1 0 0 0 0 -0 -0 -0 -0 -0 -1 -1 -1 -1 -1 -1 -1 -1 -1 -1 -1 -1 -1 -1 -1 -1 -2 -2 -2 -2 -1 -1 -1
1 1 0 0 0 0 -0 -0 -0 -0 -0 -1 -1 -1 -1 -1 -1 -1 -2 -2 -2 -2 -2 -2 -2 -2 -1 -1 -1 -2 -2 -2 -2 -2 -2 -2 -2 -2
0 0 0 -0 -0 -0 -1 -1 -1 -1 -1 -1 -1 -1 -1 -1 -1 -2 -2 -2 -2 -2 -2 -2 -2 -3 -3 -2 -2 -2 -2 -2 -2 -2 -2 -2 -2 -2
-0 -0 -0 -0 -0 -1 -1 -1 -1 -1 -2 -2 -2 -2 -2 -2 -2 -2 -2 -2 -3 -3 -3 -3 -3 -3 -4 -3 -3 -3 -3 -3 -3 -3 -3 -3 -3 -3
-1 -1 -1 -1 -1 -1 -1 -1 -2 -2 -2 -2 -2 -2 -2 -2 -2 -2 -2 -3 -3 -3 -3 -3 -4 -4 -4 -4 -4 -3 -3 -3 -3 -3 -3 -3 -3 -3
-1 -1 -1 -1 -1 -2 -2 -2 -2 -2 -2 -3 -3 -3 -3 -3 -3 -3 -3 -3 -3 -3 -3 -3 -4 -4 -4 -4 -4 -4 -4 -3 -3 -3 -3 -4 -3 -3
-2 -2 -2 -2 -2 -2 -2 -2 -3 -3 -3 -3 -3 -3 -3 -3 -3 -3 -3 -3 -3 -3 -3 -4 -4 -4 -4 -4 -4 -4 -4 -4 -4 -4 -4 -4 -4 -4
-2 -2 -2 -2 -2 -2 -3 -3 -3 -3 -3 -3 -4 -4 -4 -4 -4 -4 -4 -4 -4 -4 -4 -4 -4 -4 -4 -5 -5 -4 -4 -4 -5 -5 -5 -4 -4 -4
-3 -3 -3 -3 -3 -3 -3 -3 -4 -4 -4 -4 -4 -4 -4 -4 -4 -4 -4 -4 -4 -4 -4 -4 -4 -4 -4 -5 -5 -5 -5 -5 -5 -5 -5 -5 -5 -4
-3 -3 -3 -3 -3 -4 -4 -4 -4 -4 -4 -4 -5 -5 -5 -5 -5 -5 -5 -5 -5 -5 -5 -5 -5 -5 -5 -5 -5 -5 -5 -5 -5 -5 -5 -6 -5 -5
-3 -3 -3 -4 -4 -4 -4 -4 -4 -4 -5 -5 -5 -5 -5 -5 -5 -5 -5 -5 -5 -5 -5 -5 -5 -5 -6 -6 -6 -5 -5 -5 -5 -5 -5 -6 -5 -5
-4 -4 -4 -4 -4 -4 -4 -5 -5 -5 -5 -5 -5 -5 -5 -5 -5 -5 -6 -6 -6 -6 -5 -5 -5 -6 -6 -6 -6 -6 -5 -5 -6 -6 -6 -6 -6 -6
-4 -4 -5 -5 -5 -5 -5 -5 -5 -5 -5 -5 -5 -5 -6 -6 -6 -6 -6 -6 -6 -6 -6 -6 -6 -6 -6 -6 -6 -6 -6 -5 -6 -6 -6 -6 -7 -7
-5 -5 -5 -5 -5 -5 -5 -5 -5 -5 -5 -6 -6 -6 -6 -6 -6 -6 -6 -6 -6 -6 -6 -6 -6 -6 -6 -6 -6 -6 -6 -6 -6 -6 -6 -6 -6 -7
Wind_Speed
4 4 3 2 2 3 3 4 4 3 4 3 2 3 4 4 6 6 7 8 10 10 11 10 10 10 11 11 12 12 12 12 13 13 13 13 13 14
3 3 3 2 2 2 3 3 3 4 4 3 3 3 4 5 6 7 7 9 10 10 11 11 11 11 11 12 12 12 12 13 13 14 14 14 14 14
3 3 3 3 3 2 2 2 3 3 4 4 2 2 3 3 5 6 7 7 8 10 11 11 11 11 11 12 13 13 13 13 13 14 14 15 14 14
3 3 3 3 3 2 2 3 3 3 4 5 4 2 3 4 4 4 6 7 8 10 11 10 11 12 12 12 13 13 13 13 13 14 14 14 14 14
4 4 3 3 3 2 2 3 3 3 3 4 5 3 2 3 3 4 4 5 7 9 9 10 10 11 12 12 12 12 13 13 13 14 14 14 14 14
3 3 3 4 4 3 3 3 3 3 2 3 4 3 3 3 2 3 4 3 5 6 8 9 10 11 11 12 12 13 13 13 14 14 14 14 14 14
2 2 3 3 4 4 3 3 3 3 3 3 3 3 4 3 3 3 4 4 5 3 4 5 6 7 8 11 12 13 13 14 14 14 14 14 14 14
3 2 3 3 4 4 5 5 4 4 4 3 4 5 6 5 4 3 4 4 5 2 2 5 4 5 7 8 12 13 13 14 13 14 14 13 13 14
3 3 2 3 3 2 4 4 4 6 6 5 5 6 6 5 4 4 4 5 6 4 3 5 3 5 7 10 13 14 13 13 13 13 14 14 14 14
3 3 3 3 3 3 3 3 3 3 5 3 4 5 5 5 5 5 5 4 4 4 3 5 4 5 6 9 12 13 13 13 13 13 14 14 14 14
2 3 3 4 6 5 3 3 3 3 4 5 6 6 7 7 5 2 2 3 4 4 2 3 4 5 5 5 9 12 12 12 13 13 14 14 14 14
2 3 5 5 6 5 3 3 4 4 2 3 3 4 4 4 5 3 3 3 3 4 2 2 3 3 4 3 4 7 9 11 13 14 14 14 14 10
2 2 3 4 5 5 4 3 5 4 2 2 2 2 2 2 3 3 3 3 4 5 3 2 3 3 4 5 5 5 6 7 8 10 12 14 14 11
2 3 3 4 4 4 3 4 4 3 1 1 2 2 3 3 3 4 5 5 6 7 6 4 3 4 4 6 6 4 5 6 7 7 9 12 12 12
2 4 3 3 3 2 3 3 2 1 1 2 3 3 3 3 3 3 4 4 5 6 7 7 5 5 5 6 6 6 6 5 5 6 6 7 6 7
2 2 2 1 2 2 2 1 1 2 2 3 3 3 2 2 2 3 3 3 3 4 5 7 8 6 5 6 7 7 6 5 5 6 6 6 7 7
1 0 0 0 1 1 1 1 1 1 2 2 2 3 3 3 3 2 2 3 3 5 5 4 5 7 7 6 6 7 6 6 6 6 6 6 6 6
1 1 1 1 1 2 2 2 2 2 2 2 2 3 3 3 4 3 3 3 4 5 5 5 4 4 3 4 7 7 6 6 6 5 5 6 7 6
1 1 2 2 2 2 2 2 3 3 2 2 3 3 3 3 3 3 3 4 4 5 5 4 3 3 5 7 4 5 5 5 5 5 5 5 7 7
1 2 3 2 2 2 2 3 3 2 2 3 3 3 3 3 3 4 4 4 5 5 5 4 3 3 5 6 5 5 6 5 5 6 6 5 6 9
2 2 2 2 2 2 3 3 3 3 3 3 3 3 3 3 3 4 4 6 5 5 5 6 5 7 4 3 5 5 4 7 7 5 5 5 5 5
2 3 3 3 3 3 3 3 3 3 3 3 3 3 3 3 4 5 5 5 5 5 6 6 5 3 2 4 6 7 6 6 8 9 8 6 4 4
3 3 3 3 3 3 3 3 4 4 3 3 3 3 3 3 4 4 5 5 5 5 5 5 4 3 4 5 6 6 6 6 5 5 5 8 9 11
Wind_Direction
172 175 178 185 180 182 181 184 195 246 256 238 233 228 252 272 282 291 291 291 296 297 296 296 295 292 292 293 293 293 294 295 295 294 293 293 292 293
167 169 183 189 178 181 187 199 201 219 254 245 238 245 258 279 286 289 285 291 295 294 293 294 294 293 292 293 293 292 292 292 293 293 293 292 290 290
165 174 197 198 189 190 185 201 210 209 247 276 256 249 245 259 290 288 284 284 289 289 289 290 292 292 290 289 289 289 290 291 292 293 293 292 290 289
181 182 196 197 197 197 194 207 222 220 223 263 276 263 257 256 267 278 288 290 289 286 285 286 290 292 290 289 289 289 290 291 293 293 292 292 291 289
186 194 200 189 206 214 212 216 231 239 224 240 269 272 268 268 275 280 281 289 291 288 283 287 290 291 291 291 291 293 292 290 291 292 291 289 288 288
186 196 202 201 210 214 223 220 224 228 220 235 262 274 275 268 260 276 291 290 292 295 286 290 293 295 293 293 293 293 292 290 289 289 289 287 286 286
188 203 211 218 228 233 239 224 216 225 226 242 261 279 278 273 265 263 279 296 291 283 288 294 298 296 294 292 291 290 289 288 287 287 288 285 284 283
195 212 223 234 241 252 260 258 243 237 237 245 260 264 269 266 267 269 281 294 290 277 276 289 286 282 285 285 288 291 291 289 286 287 287 287 286 285
204 215 235 243 264 245 257 265 263 264 260 248 247 256 260 255 252 265 264 268 273 277 288 287 283 281 284 286 292 293 292 289 289 289 290 288 286 286
212 216 225 235 238 241 234 241 247 257 264 256 239 249 251 248 240 252 261 274 277 272 261 277 287 283 291 290 291 292 294 293 291 289 289 289 288 287
230 227 231 234 244 251 236 237 260 272 285 281 279 280 283 283 275 269 266 276 286 281 255 257 281 294 291 284 289 294 294 294 293 292 292 292 291 291
247 242 247 249 251 245 230 223 245 267 279 304 309 307 299 285 283 263 240 255 276 282 252 247 281 306 302 281 286 295 296 295 295 295 293 292 292 291
245 263 255 257 261 253 251 235 250 273 265 266 283 288 290 282 276 268 244 240 254 263 255 244 269 276 276 291 295 288 287 290 295 293 293 293 292 288
242 259 257 264 274 272 268 260 269 289 269 272 281 283 282 282 282 282 272 262 257 260 261 245 251 260 275 285 289 293 288 285 287 288 291 294 291 288
249 262 272 277 293 286 275 271 280 266 257 268 274 279 279 276 283 294 295 288 282 274 263 252 245 251 253 267 280 286 298 294 286 292 293 287 280 288
262 253 276 306 321 306 304 302 275 244 251 254 268 277 285 287 284 282 287 297 298 293 275 262 255 245 257 264 269 280 282 285 298 300 298 290 284 278
228 179 221 274 310 299 293 296 301 289 277 270 271 280 288 292 291 286 277 289 285 291 299 297 280 265 255 258 270 273 279 283 286 297 301 298 288 280
235 189 224 233 250 266 276 290 286 277 275 275 273 273 279 284 290 292 286 284 286 289 292 296 304 307 300 268 238 259 274 277 287 291 286 291 293 291
236 224 240 242 247 252 256 267 276 278 275 266 266 269 273 278 282 287 291 294 291 289 289 287 286 291 299 301 285 235 257 283 292 293 284 278 284 293
231 238 249 250 251 253 257 264 269 275 276 270 268 269 268 274 280 283 285 287 289 292 294 291 281 272 269 279 287 285 265 266 280 286 291 287 282 289
252 253 253 252 253 253 256 257 258 263 266 265 264 264 266 269 273 278 284 292 291 291 294 294 283 287 276 280 284 284 286 276 271 274 285 293 300 305
254 258 260 254 252 249 252 254 259 261 261 260 262 263 265 266 270 277 282 287 288 286 287 289 295 295 278 276 280 286 297 304 297 286 277 272 280 288
254 257 261 258 253 250 249 249 250 256 255 254 258 259 261 268 271 274 280 283 287 290 293 297 301 296 283 276 280 286 294 302 309 311 301 295 284 283
Height
1496 1498 1500 1501 1502 1503 1504 1505 1506 1504 1503 1504 1504 1505 1506 1506 1506 1505 1504 1504 1503 1502 1501 1500 1499 1498 1497 1497 1496 1496 1495 1494 1493 1493 1492 1491 1490 1490
1493 1494 1496 1497 1498 1499 1500 1501 1502 1502 1499 1499 1499 1500 1501 1501 1501 1500 1499 1499 1497 1497 1496 1494 1494 1493 1492 1491 1491 1490 1489 1489 1488 1487 1486 1485 1485 1484
1489 1490 1492 1493 1494 1495 1496 1496 1497 1498 1496 1494 1495 1496 1496 1496 1496 1495 1494 1493 1492 1491 1490 1489 1488 1487 1487 1486 1485 1484 1484 1483 1482 1481 1480 1479 1479 1478
1485 1486 1488 1489 1489 1491 1491 1492 1493 1493 1492 1490 1490 1491 1491 1491 1490 1490 1489 1488 1487 1486 1485 1484 1483 1482 1481 1480 1479 1479 1478 1477 1476 1475 1474 1473 1472 1472
1482 1483 1484 1485 1485 1486 1487 1487 1488 1488 1488 1487 1485 1486 1486 1486 1485 1484 1484 1483 1481 1480 1479 1478 1477 1476 1475 1474 1473 1472 1471 1470 1469 1468 1467 1466 1465 1465
1478 1479 1480 1481 1482 1482 1482 1483 1483 1484 1484 1483 1482 1481 1481 1481 1480 1479 1478 1477 1476 1475 1474 1473 1472 1471 1470 1468 1467 1466 1465 1464 1463 1461 1460 1459 1458 1458
1475 1476 1477 1477 1478 1478 1479 1479 1479 1479 1479 1479 1478 1477 1476 1475 1475 1474 1473 1471 1470 1469 1467 1467 1466 1464 1463 1462 1461 1460 1459 1457 1456 1455 1454 1453 1452 1451
1471 1472 1473 1474 1474 1474 1475 1475 1476 1476 1475 1474 1473 1472 1471 1471 1470 1469 1468 1466 1465 1464 1462 1461 1460 1459 1457 1456 1455 1454 1452 1451 1450 1449 1448 1446 1445 1444
1468 1469 1469 1470 1470 1471 1471 1471 1471 1471 1472 1471 1469 1468 1467 1466 1466 1464 1463 1462 1460 1459 1458 1455 1455 1453 1452 1451 1449 1448 1447 1445 1444 1443 1442 1440 1439 1438
1465 1465 1466 1466 1466 1467 1466 1467 1467 1467 1467 1466 1465 1464 1463 1462 1461 1460 1459 1457 1456 1455 1454 1450 1448 1448 1446 1445 1444 1443 1441 1439 1438 1437 1435 1434 1433 1432
1462 1462 1462 1463 1463 1463 1463 1462 1462 1462 1463 1462 1461 1460 1459 1458 1457 1456 1454 1452 1450 1449 1449 1446 1444 1442 1440 1439 1439 1437 1436 1434 1432 1431 1429 1428 1426 1425
1458 1459 1459 1459 1459 1459 1459 1459 1458 1458 1457 1456 1456 1455 1454 1453 1452 1451 1450 1449 1446 1445 1443 1442 1440 1438 1434 1433 1433 1431 1430 1428 1426 1425 1423 1421 1420 1418
1454 1455 1455 1455 1455 1455 1455 1455 1455 1454 1453 1452 1451 1450 1449 1449 1448 1447 1446 1445 1443 1441 1440 1439 1436 1434 1432 1428 1426 1426 1424 1422 1420 1418 1416 1415 1413 1412
1451 1451 1451 1452 1452 1452 1451 1451 1451 1450 1449 1447 1446 1446 1445 1444 1443 1442 1442 1440 1439 1437 1436 1435 1432 1430 1428 1425 1422 1420 1419 1417 1415 1412 1410 1408 1407 1406
1448 1448 1448 1448 1448 1448 1448 1447 1447 1446 1445 1444 1442 1442 1441 1440 1439 1438 1437 1436 1434 1433 1432 1430 1429 1426 1424 1422 1418 1416 1414 1412 1410 1407 1404 1402 1400 1399
1444 1444 1444 1444 1444 1444 1444 1443 1443 1442 1441 1440 1439 1438 1437 1436 1435 1434 1433 1431 1429 1428 1427 1426 1424 1422 1419 1417 1415 1412 1410 1407 1404 1402 1399 1397 1395 1393
1441 1441 1441 1440 1440 1440 1440 1440 1439 1438 1438 1437 1435 1434 1433 1432 1431 1430 1429 1427 1425 1423 1421 1421 1420 1418 1415 1414 1411 1408 1406 1403 1401 1398 1394 1391 1390 1389
1438 1437 1437 1437 1436 1436 1435 1435 1435 1434 1434 1433 1432 1431 1430 1429 1427 1426 1425 1424 1421 1420 1418 1416 1415 1413 1411 1408 1408 1404 1402 1399 1397 1394 1391 1387 1384 1383
1434 1434 1434 1433 1433 1433 1432 1432 1431 1431 1430 1429 1428 1427 1426 1425 1424 1423 1421 1420 1418 1416 1414 1413 1411 1409 1406 1403 1402 1401 1398 1395 1393 1390 1387 1384 1380 1378
1431 1431 1430 1430 1429 1429 1428 1428 1427 1427 1426 1425 1425 1424 1423 1421 1420 1419 1418 1416 1414 1412 1411 1409 1408 1406 1404 1402 1398 1396 1395 1392 1389 1385 1383 1380 1377 1375
1427 1427 1427 1426 1426 1425 1425 1424 1424 1423 1422 1422 1421 1420 1419 1418 1417 1416 1414 1413 1411 1409 1407 1406 1405 1403 1401 1399 1395 1391 1390 1389 1386 1383 1379 1376 1373 1370
1424 1424 1423 1423 1422 1422 1421 1421 1420 1419 1419 1418 1417 1416 1415 1414 1413 1412 1411 1409 1408 1406 1404 1402 1401 1399 1397 1395 1391 1388 1386 1384 1382 1380 1378 1375 1372 1368
1420 1420 1420 1419 1419 1418 1417 1417 1416 1415 1415 1414 1413 1412 1412 1411 1410 1409 1407 1406 1404 1402 1401 1399 1397 1395 1393 1391 1388 1385 1383 1380 1378 1375 1374 1372 1370 1368